カタログに戻る

STARLINK-35641

運用中通信VLEO
NORAD 66167·PAYLOAD·🇺🇸 United States

打ち上げ Oct 25, 2025 から Cape Canaveral Space Force Station

Loading…

次のパス (今後24時間)

TLE

最新Source: CelesTrak SupGP

元期: Sep 15, 2026, 02:57 UTC

1 66167C 25240X   26258.12340278 -.00026873  00000+0 -79377-3 0  2580
2 66167  53.1572 258.8973 0001213  96.7505  61.8274 15.34411360    19

AllMySatでSTARLINK-35641をリアルタイム追跡

Download on the App Store